Regional Weather Roundup
Issued by NWS Cleveland, OH

Home | Current Version | Previous Version | Text Only | Print | Product List | Glossary Off
Versions: 1 2 3 4 5 6 7 8 9 10 11 12 13 14 15 16 17 18 19 20 21 22 23 24 25 26 27 28 29 30 31 32 33 34 35 36 37 38 39 40 41 42 43 44 45 46 47 48 49 50

000
ASUS41 KCLE 291810
RWRCLE
OHIO REGIONAL WEATHER ROUNDUP
NATIONAL WEATHER SERVICE WILMINGTON, OH
200 PM EDT WED JUL 29 2015

NOTE: "FAIR" INDICATES FEW OR NO CLOUDS BELOW 12,000 FEET WITH NO
SIGNIFICANT WEATHER AND/OR OBSTRUCTIONS TO VISIBILITY.

OHZ001>008-015>018-024>027-034-035-043-044-291900-
   NORTHWEST OHIO

CITY           SKY/WX    TMP DP  RH WIND       PRES   REMARKS
DEFIANCE       PTSUNNY   88  72  58 W6        29.93F HX  94
FINDLAY        PTSUNNY   90  72  55 VRB5      29.94S HX  97
TOLEDO EXPRESS MOSUNNY   89  73  59 MISG      29.92F HX  97
TOLEDO EXEC    PTSUNNY   89  71  55 S10G17    29.93F HX  95
LIMA           PTSUNNY   88  72  58 SW8       29.96S HX  94
$$

OHZ009>014-019>023-028>033-038-089-291900-
   NORTHEAST OHIO

CITY           SKY/WX    TMP DP  RH WIND       PRES   REMARKS
CLE-HOPKINS    PTSUNNY   91  64  40 SW5       29.98  HX  92
CLE-LAKEFRONT  MOSUNNY   87  71  58 N7        29.94F HX  93
CUY CO. ARPT   MOSUNNY   91  66  43 NW6       29.96F HX  94
LORAIN-ELYRIA  SUNNY     89  66  46 VRB5      29.96F HX  91
ASHTABULA      PTSUNNY   88  64  44 MISG      29.97F
AKRON-CANTON   MOSUNNY   89  63  41 VRB6      29.99F HX  90
WOOSTER        SUNNY     87  67  51 CALM      29.99F HX  90
MANSFIELD      MOSUNNY   88  68  51 W5        29.99F HX  91
YOUNGSTOWN     CLOUDY    88  67  49 SW5       29.98F HX  91
$$

OHZ042-051>053-060>062-070>072-077>081-291900-
  SOUTHWEST OHIO

CITY           SKY/WX    TMP DP  RH WIND       PRES   REMARKS
CINC-COVINGTON PTSUNNY   89  74  60 VRB3      29.98F HX  98
CINC-LUNKEN    MOSUNNY   90  76  63 S7        29.96S HX 101
HAMILTON       MOSUNNY   92  75  57 VRB5      29.97S HX 103
DAYTON         PTSUNNY   88  73  61 SW8       29.98S HX  95
WRIGHT-PAT AFB PTSUNNY   89  75  62 S7        29.96F HX  99
DAYTON GENERAL MOSUNNY   89  73  59 VRB3      29.97F HX  97
WILMINGTON     PTSUNNY   87  73  62 VRB7      29.99S HX  94
$$

OHZ036-037-039>041-045>050-054>059-063>069-073>076-082>088-291900-
  CENTRAL AND SOUTHEAST OHIO

CITY           SKY/WX    TMP DP  RH WIND       PRES   REMARKS
COLUMBUS       MOSUNNY   89  70  53 S5        29.97S HX  94
OSU AIRPORT    MOSUNNY   89  71  55 S8        29.97F HX  95
BOLTON FIELD   MOSUNNY   88  75  66 S8        29.99S HX  97
RICKENBACK AFB MOSUNNY   87  71  57 S6        29.98S HX  92
NEWARK         MOSUNNY   90  69  50 S7        29.98S HX  94
MARION         MOSUNNY   88  69  53 SW6       29.97F HX  92
LANCASTER      MOSUNNY   89  71  55 S7        29.99S HX  95
ZANESVILLE     MOSUNNY   88  69  53 W6        29.98F HX  92
NEW PHILLY     MOSUNNY   87  69  54 VRB3      29.99S HX  91
$$


USA.gov is the U.S. government's official web portal to all federal, state and local government web resources and services.